STARLINK-2282

Last updated on Sat Apr 24 2021 00:02:02 GMT+0000 (Coordinated Universal Time)

1 48018U 21024AT 21113.25001157 .00075740 00000-0 54025-3 0 9991 2 48018 53.0483 55.6621 0001440 83.4766 86.4700 15.73150909 1820

Satellite not in orbit

STARLINK-2282